This is the latest recevied weather packets stored in our database for station/object W4MSI. If no packets are shown the sender has not sent any weather packets the latest 10 day(s).
| Time | Temp. | Humidity | Pressure | Rain* | Wind** | Luminosity | Snow |
|---|---|---|---|---|---|---|---|
| 1777655673 | 17.22° C | 40% | 1016.2 hPa | 0 mm | - | 862 W/m² | - |
| 1777655369 | 16.67° C | 45% | 1016.2 hPa | 0 mm | - | 839 W/m² | - |
| 1777655066 | 16.67° C | 46% | 1016.2 hPa | 0 mm | - | 825 W/m² | - |
| 1777654765 | 16.11° C | 47% | 1016.2 hPa | 0 mm | - | 840 W/m² | - |
| 1777654462 | 16.11° C | 50% | 1016.3 hPa | 0 mm | - | 828 W/m² | - |
| 1777654160 | 15.56° C | 45% | 1016.5 hPa | 0 mm | - | 843 W/m² | - |
| 1777653857 | 16.11° C | 49% | 1016.3 hPa | 0 mm | - | 231 W/m² | - |
| 1777653553 | 16.11° C | 49% | 1016.4 hPa | 0 mm | - | 332 W/m² | - |
| 1777653249 | 16.11° C | 49% | 1016.2 hPa | 0 mm | - | 794 W/m² | - |
| 1777652946 | 16.11° C | 44% | 1016.5 hPa | 0 mm | - | 785 W/m² | - |
| 1777652643 | 16.11° C | 50% | 1016.2 hPa | 0 mm | - | 847 W/m² | - |
| 1777652340 | 16.11° C | 48% | 1016.3 hPa | 0 mm | - | 745 W/m² | - |
| 1777652037 | 16.11° C | 51% | 1016.3 hPa | 0 mm | - | 823 W/m² | - |
| 1777651733 | 16.67° C | 53% | 1016.4 hPa | 0 mm | - | 869 W/m² | - |
| 1777651430 | 16.11° C | 53% | 1016.3 hPa | 0 mm | - | 718 W/m² | - |
| 1777651128 | 16.11° C | 48% | 1016.4 hPa | 0 mm | - | 663 W/m² | - |
| 1777650824 | 16.11° C | 50% | 1016.4 hPa | 0 mm | - | 749 W/m² | - |
| 1777650521 | 16.11° C | 53% | 1016.5 hPa | 0 mm | - | 688 W/m² | - |
| 1777650219 | 15.56° C | 54% | 1016.3 hPa | 0 mm | - | 708 W/m² | - |
| 1777649916 | 15.56° C | 53% | 1016.3 hPa | 0 mm | - | 700 W/m² | - |
| 1777649613 | 15° C | 52% | 1016.3 hPa | 0 mm | - | 693 W/m² | - |
| 1777649314 | 15.56° C | 53% | 1016.3 hPa | 0 mm | - | 639 W/m² | - |
| 1777649012 | 15.56° C | 52% | 1016.4 hPa | 0 mm | - | 647 W/m² | - |
| 1777648709 | 15.56° C | 53% | 1016.3 hPa | 0 mm | - | 646 W/m² | - |
| 1777648405 | 15.56° C | 53% | 1016 hPa | 0 mm | - | 623 W/m² | - |
* Rain latest hour (hover to see other rain measurements)
** Current wind speed in m/s (hover to see current wind gust speed)